NIMBUS 2 DEB, 28203

Orbit data source: Space-Track

NIMBUS 2 DEB, 28203 is space debris in SSO originally from a launch on Sun, 15 May 1966 UTC launched from the Air Force Western Test Range (AFWTR). Debris objects in space refer to the collection of defunct objects orbiting the Earth. Examples of debris include non-operational satellites, rocket bodies, and fragments generated from explosions, collisions, or faulty payload assembly.

Loading next visibility...
Identifier
28203, 1966-040R
Orbit
SSO
Country
Flag of USUS
Related business
Manufacturer
Unknown
Mission
Spacecraft
Bus & Motor
Unknown
Mass
Unknown
Launch date (UTC)
1966-05-15 (59 years ago)
Launch vehicle
Unknown
Launch site
Air Force Western Test Range (AFWTR)
Object type
Payload
Rocket body
Debris
Shape & HBR
Unknown shape, 0.1 m
Radar Cross Section
Small (<0.1 m²)

Expand to show TLE details & history
Last TLE update: 1 day ago

TLE from 1 day ago
0 NIMBUS 2 DEB
1 28203U 66040R   25285.92399939  .00002236  00000-0  35661-2 0  9992
2 28203 100.3316 161.0298 0044333 162.4993 216.7812 13.50029762151479
Epoch: 2025-10-12T22:10Z
TLE epoch observation values (Epoch: 2025-10-12T22:10:33.547Z)
Latitude
18.6557°
Longitude
163.14525°
Altitude
1,100.918 km
Speed
7.29 km/s
True Right ascension
10h 30m 04s
True Declination
18° 33' 23"
Sunlit
Object was in daylight at epoch
Visualization orbit readout
Latitude
Unknown
Longitude
Unknown
Altitude
Unknown
Speed
Unknown
Apparent Right ascension
Unknown
Apparent Declination
Unknown
Sunlit
N/A
Visualization observer readout
Local Sidereal Time
01:31:28
Azimuth
Unknown
Elevation
Unknown
Doppler factor
Unknown
Orbital elements
Apogee altitude
1,102.501 km
Perigee altitude
1,036.466 km
Semi-major axis
7,447.621 km
Eccentricity
0.00443
Inclination
100.3316°
RAAN
161.0298°
Arg. of periapsis
162.4993°
True anomaly
216.47836°
Mean anomaly
216.7812°
Eccentric anomaly
216.62965°
Mean motion
3.37689 °/min
Orbital period
106.61 mins
BSTAR
0.0035661
Loading maneuver chart data...
Computing Atmospheric mass density...
Loading historical data...
Loading historical data...
Loading historical data...
Loading historical data...
Loading historical data...
Loading historical data...
Loading historical data...

Documentation

Showing up to 5 results
|